Location: Unspecified
(0.0000°N, 0.0000°E)
Time: 01:22:49
(UTC+00:00)

A-11 Canister half - Pass Details

Date: 25 November 2019
Orbit: 1526 x 1683 km, 47.3° (Epoch: 10 December)

Event Time Altitude Azimuth Distance (km) Brightness Sun altitude
Rises 08:06:49 0° 237° (WSW) 4,902 11.4 32.4°
Reaches altitude 10° 08:10:14 10° 244° (WSW) 3,926 10.9 33.2°
Maximum altitude 08:19:25 40° 310° (NW) 2,310 9.9 35.3°
Drops below altitude 10° 08:28:40 10° 17° (NNE) 3,923 11.1 37.4°
Sets 08:32:07 0° 24° (NNE) 4,898 11.6 38.1°
